Location: Mason
(37.5237°N, 89.2543°W)
Time: 20:06:27
(UTC+00:00)

Meteor 1-27 Rocket - Pass Details

Date: 08 December 2021
Orbit: 831 x 908 km, 81.3° (Epoch: 17 January)

Event Time Altitude Azimuth Distance (km) Brightness Sun altitude
Rises 12:13:43 0° 341° (NNW) 3,439 6.5 -9.0°
Reaches altitude 10° 12:16:17 10° 334° (NNW) 2,510 5.7 -8.6°
Maximum altitude 12:21:27 37° 269° (W) 1,336 4.3 -7.6°
Drops below altitude 10° 12:26:42 10° 203° (SSW) 2,543 6.2 -6.7°
Sets 12:29:20 0° 195° (SSW) 3,489 7.0 -6.2°
